Wind_Speed
20 20 20 20 20 20 20 21 20 20 19 20 20 20 20 19 19 19 18 18 19 21 22 23 23 22 21 20 20 19 19 19 18 21 25 22 16 15 16 15 14 12 10 10 7 7 8 8 10 9 9 12 16 18 16 17 20 13 4 3 3 5 5 6 6 7 6 6 8 13 18 12 10 16 17 16 17 21 23 23 25 26 29 30 30 32 31 29
20 20 20 20 20 20 20 21 21 21 20 20 20 20 20 20 20 20 18 18 19 21 22 22 22 21 20 19 18 18 18 19 20 25 25 18 14 17 17 16 16 14 11 9 8 8 9 10 14 13 13 16 19 19 17 15 12 7 2 2 4 8 8 8 10 8 7 9 9 13 19 15 12 14 12 10 14 22 22 23 31 33 31 31 31 29 30 31
20 20 20 20 20 20 20 21 21 21 21 20 20 20 21 21 21 20 19 19 20 21 21 21 20 19 18 17 17 17 17 18 22 23 15 10 15 19 19 17 16 15 12 9 7 8 9 13 15 15 17 19 20 18 15 12 9 7 2 2 4 10 8 7 13 12 11 14 11 12 20 19 15 14 12 13 18 19 16 20 28 30 32 32 31 30 30 30
20 20 20 20 20 20 20 21 21 21 21 21 20 20 21 21 21 21 19 19 21 21 20 18 17 17 16 16 15 15 15 16 16 12 7 5 14 19 20 18 15 14 12 8 8 10 11 16 17 20 18 15 19 17 11 11 8 3 3 3 4 10 10 12 15 15 16 17 14 14 19 18 17 17 15 16 15 11 15 23 29 31 33 33 31 30 27 26
20 20 20 21 21 20 20 20 21 21 22 21 21 20 20 21 21 21 20 19 21 21 18 16 15 15 16 15 14 14 11 8 5 4 5 2 10 17 19 17 14 13 11 9 10 13 13 15 17 22 17 8 13 12 6 9 5 1 5 8 9 8 8 17 17 13 16 18 15 15 15 14 17 16 15 15 8 9 19 26 30 33 34 32 31 29 26 25
20 20 20 21 21 21 21 20 21 21 22 22 21 21 20 21 21 20 20 19 21 21 17 15 14 14 16 15 14 13 6 3 1 2 6 4 6 13 16 16 15 13 12 11 13 14 13 13 17 18 13 7 8 7 7 6 2 2 6 9 12 11 8 14 18 14 15 16 15 16 18 19 16 10 15 16 9 17 28 28 30 31 31 30 29 28 26 24
20 20 20 21 21 21 21 20 21 21 22 22 22 21 20 21 21 21 20 19 21 21 17 15 13 14 16 15 15 11 10 13 9 3 6 4 4 9 13 16 16 14 14 14 17 17 14 14 17 17 11 8 10 10 11 7 5 5 6 6 11 15 10 10 15 16 16 17 18 19 19 19 14 8 14 16 16 27 31 29 30 28 28 28 27 27 25 24
21 20 21 21 21 21 21 21 21 21 22 22 22 21 21 20 21 21 20 19 20 20 18 15 14 15 15 15 13 10 14 17 7 3 6 6 5 6 12 16 16 16 16 16 20 20 14 16 19 18 11 7 13 12 6 4 6 5 6 8 11 15 15 13 12 15 18 21 23 21 17 16 16 14 13 15 23 32 30 29 29 27 27 26 25 25 24 23
21 21 21 21 21 21 21 21 21 21 21 22 23 22 21 20 21 21 20 19 19 20 18 15 15 15 15 14 9 8 13 9 3 4 6 7 7 7 11 16 18 18 17 18 22 21 16 20 22 21 15 12 17 7 6 4 5 8 11 12 11 13 15 12 10 15 20 23 24 19 14 15 19 16 12 18 28 30 28 29 27 26 26 24 24 24 23 22
22 22 21 21 21 22 22 22 21 22 21 22 22 23 22 21 21 21 21 20 18 20 18 15 15 14 15 11 4 4 6 4 2 4 7 10 9 9 12 17 18 18 19 19 22 24 22 23 23 24 20 14 13 3 8 6 8 13 16 13 11 13 14 13 16 22 24 23 24 16 10 13 16 10 9 20 28 27 29 28 25 25 23 23 24 23 22 21
22 22 22 22 22 22 22 22 22 22 22 22 22 23 23 22 21 21 21 20 18 18 17 16 15 14 15 9 8 8 5 1 2 5 7 13 13 12 15 18 19 19 19 20 24 24 23 23 23 24 15 7 6 3 7 12 14 15 18 12 9 11 14 17 17 20 20 18 24 19 12 14 13 7 10 21 25 25 28 26 25 24 22 23 23 22 21 20
22 22 22 22 22 22 22 22 22 22 22 22 22 23 24 23 22 21 22 21 19 17 15 16 15 14 13 11 17 13 8 4 5 4 8 9 9 11 15 19 19 18 19 21 22 21 19 20 23 25 18 9 5 1 7 14 16 17 17 9 7 7 10 14 13 18 15 13 26 21 11 10 8 9 15 23 25 25 26 24 25 23 22 25 22 22 21 18
23 23 23 23 23 23 22 23 22 22 22 22 22 22 24 24 22 22 22 22 20 17 15 15 15 14 11 13 17 9 7 5 6 7 10 8 6 8 15 18 16 17 20 20 19 17 17 19 24 27 24 15 2 6 7 12 16 16 12 6 7 5 5 9 12 17 13 16 31 19 5 7 7 12 18 21 25 26 23 23 24 22 23 25 22 22 18 16
23 23 23 23 23 23 23 23 23 23 22 22 22 22 24 25 23 22 23 22 22 19 14 13 15 13 12 16 13 5 10 7 6 9 11 11 7 10 16 17 15 16 17 18 18 17 17 20 22 22 20 16 4 6 5 6 12 9 6 5 5 4 4 8 10 13 9 16 31 16 3 7 8 12 17 19 22 23 21 22 23 22 24 23 21 20 16 16
23 23 24 24 23 23 23 23 23 23 22 23 22 22 23 25 25 23 23 23 23 20 14 11 11 10 13 19 11 4 11 11 9 10 12 12 9 13 16 16 17 17 16 18 19 20 22 22 18 15 16 19 12 4 2 3 6 4 5 4 3 4 4 8 10 10 7 12 22 11 4 7 8 13 18 17 20 21 19 21 22 22 24 22 20 19 16 17
23 23 23 24 24 23 23 23 23 23 23 23 22 22 23 25 26 24 25 24 23 20 12 6 5 7 9 12 8 5 13 16 13 10 13 14 12 15 15 15 16 17 18 19 18 21 24 21 15 13 16 15 9 4 2 4 4 3 5 4 4 4 2 5 9 9 10 8 9 6 5 7 7 15 21 17 19 21 18 19 21 22 24 23 21 19 18 19
23 23 23 23 24 23 23 22 23 24 23 23 23 22 22 25 26 27 27 23 19 15 8 3 2 7 10 9 7 10 17 17 14 13 15 16 16 16 15 16 17 18 20 20 19 21 21 19 13 9 10 8 5 3 3 4 4 3 4 4 6 5 2 3 5 8 12 8 6 4 5 10 9 16 22 19 19 19 17 18 20 22 24 24 22 19 20 21
24 24 23 23 24 23 23 22 23 24 23 22 22 23 23 25 26 25 22 16 11 7 4 6 5 4 10 13 11 13 18 16 15 16 16 17 18 18 17 18 17 17 19 18 18 21 19 15 9 4 5 6 6 4 5 5 6 7 6 4 6 8 5 5 3 6 11 9 7 4 6 13 12 15 20 22 21 18 17 18 19 21 24 25 22 19 21 22
25 24 23 23 23 23 23 22 22 23 23 22 20 22 23 22 21 15 8 5 5 2 4 8 11 4 8 13 13 11 15 15 14 16 18 19 20 21 19 18 17 17 15 10 11 16 12 5 5 4 5 6 8 6 6 8 12 13 11 7 7 9 8 9 8 8 11 7 6 7 8 14 14 13 17 23 26 22 20 19 18 21 23 23 22 20 21 22
25 25 25 24 23 23 22 21 21 21 22 21 20 20 18 15 11 5 2 7 12 14 17 14 17 20 21 26 22 8 12 15 15 18 20 21 21 21 21 20 18 15 11 5 6 15 11 3 4 6 7 10 11 10 8 9 15 16 13 9 10 11 8 13 13 9 11 6 5 8 8 12 15 12 15 23 26 22 21 21 19 21 22 22 21 20 21 22
24 25 25 25 24 23 21 20 19 18 19 19 19 19 17 14 8 6 10 17 21 23 25 23 22 27 29 33 29 14 12 16 19 20 19 22 22 18 19 20 13 8 8 9 9 12 11 5 6 9 11 14 13 12 11 10 10 12 12 10 10 10 9 14 14 9 11 7 5 8 6 10 14 11 14 20 19 18 22 22 20 22 23 22 22 22 23 22
24 24 25 25 25 23 21 19 17 16 16 15 16 17 16 14 9 11 17 19 23 26 25 27 29 30 32 33 31 25 16 15 17 21 21 24 23 15 17 17 9 5 8 11 8 6 7 6 9 12 13 14 14 12 11 11 10 8 7 8 8 7 8 11 11 11 10 6 7 10 7 9 13 12 13 17 14 17 26 27 26 26 25 24 23 24 25 22
23 23 25 25 25 24 21 18 16 13 12 13 16 15 14 19 18 17 21 17 20 27 26 27 28 28 31 30 28 28 20 16 14 21 24 24 24 20 18 13 8 7 9 10 8 5 5 7 11 14 14 14 13 11 10 10 9 8 5 4 5 9 11 8 9 13 11 7 9 12 8 6 10 10 10 17 19 19 27 31 31 32 30 28 26 26 26 24
23 23 24 25 25 24 21 19 15 11 12 15 14 12 17 26 26 21 21 14 12 24 31 28 27 26 29 28 25 23 21 20 17 21 25 25 25 21 16 14 10 8 9 11 12 9 5 8 13 14 15 14 12 10 11 9 6 7 8 5 5 10 15 13 12 13 9 8 11 11 7 3 7 8 7 14 18 17 25 29 29 33 33 31 29 29 28 27
23 23 24 24 25 24 22 18 13 10 13 15 10 15 18 22 22 17 12 10 6 17 26 23 24 26 29 26 20 18 20 19 21 22 26 28 25 17 13 16 12 7 10 13 13 10 7 12 16 15 13 14 11 10 11 9 5 6 8 8 6 7 11 16 17 12 7 6 11 11 7 3 5 7 8 9 11 13 20 24 25 31 34 32 32 32 31 29
23 23 23 24 24 25 22 15 9 10 15 14 11 15 16 15 16 15 7 5 4 9 12 13 16 19 25 24 18 20 15 13 21 24 26 29 27 18 10 12 10 8 11 12 9 6 7 13 16 14 14 14 12 9 9 9 6 5 6 8 7 6 2 15 20 12 6 5 9 13 8 3 4 6 9 8 8 10 12 16 22 30 34 32 33 36 34 31
23 22 22 23 22 24 23 16 13 15 16 14 14 16 16 13 14 13 5 2 5 7 8 14 14 14 22 23 22 18 7 9 18 24 29 29 29 23 11 7 8 9 10 8 6 5 8 13 15 15 14 11 10 9 8 10 7 5 5 6 6 8 7 15 18 9 6 4 7 12 9 5 4 8 10 9 7 6 7 10 18 27 33 33 34 37 37 34
24 22 22 22 20 20 23 23 20 16 12 11 13 14 14 12 12 11 3 2 4 4 7 11 12 14 19 23 26 18 7 11 13 18 30 32 29 23 11 8 9 10 12 8 5 7 9 12 13 14 13 8 6 9 10 10 8 5 7 6 7 10 10 9 13 6 6 6 5 9 9 6 4 7 8 9 8 7 9 10 13 22 31 33 34 36 38 37
24 23 23 22 20 17 20 25 22 13 7 7 10 11 11 10 10 6 1 2 6 2 6 10 10 13 16 18 24 20 14 14 10 15 29 31 30 23 10 11 12 10 14 11 7 8 10 15 16 12 10 7 7 9 11 8 6 6 9 8 5 10 9 4 8 5 4 5 5 9 10 5 3 5 6 7 9 10 11 9 9 20 32 34 35 37 38 39
25 23 22 23 21 17 20 23 16 8 7 9 11 11 10 7 4 2 3 3 5 1 6 8 8 12 15 12 15 17 14 14 12 19 26 27 31 27 15 16 14 8 10 12 11 9 12 19 20 11 9 10 11 12 12 9 5 5 7 8 7 6 4 1 4 4 4 1 5 8 11 9 4 5 8 9 13 16 13 9 9 17 29 35 36 36 38 39
25 24 23 23 22 20 22 20 9 6 10 13 14 12 8 3 1 2 4 4 5 2 6 5 6 12 14 9 9 14 12 11 12 16 17 17 21 20 12 12 11 6 6 7 9 12 12 14 12 9 11 15 13 11 9 9 7 6 6 4 4 3 1 3 3 4 3 3 6 6 6 9 5 5 9 14 19 19 15 14 13 15 24 33 34 34 37 39
26 25 23 22 22 22 24 18 8 9 13 12 13 11 5 2 4 4 5 4 4 5 8 7 8 10 12 12 10 12 11 9 10 11 11 10 9 10 9 7 5 4 5 5 7 9 11 9 7 8 12 12 10 8 6 6 6 7 5 2 2 1 0 1 3 1 1 5 6 5 6 5 5 7 15 19 17 17 18 20 21 21 24 31 33 33 35 39
26 26 24 21 22 24 24 19 13 12 11 8 9 6 1 3 4 6 8 5 4 5 5 9 13 12 12 12 10 12 12 9 11 10 11 11 8 9 11 11 9 6 5 5 6 7 7 9 9 10 9 10 9 5 5 5 5 6 5 4 4 3 2 2 1 2 3 5 5 5 6 5 4 5 14 21 19 20 25 27 28 30 30 32 36 36 34 37
27 25 25 22 23 24 23 18 14 12 9 6 5 3 4 4 4 8 10 9 10 11 8 5 11 14 13 11 9 11 10 9 12 11 11 12 9 8 10 14 15 9 5 5 6 6 6 6 8 8 7 10 9 5 6 7 6 6 6 6 4 4 4 3 3 4 4 4 5 6 5 4 5 5 6 17 21 22 27 29 32 36 37 37 37 35 34 35
26 24 26 24 23 22 19 17 14 11 9 7 3 3 6 5 5 8 10 11 11 11 14 14 10 13 11 9 10 12 10 8 13 12 9 12 9 8 9 11 15 12 7 6 4 5 7 5 9 12 9 13 11 8 8 8 7 6 5 6 5 3 5 3 4 5 4 3 3 3 4 3 6 5 2 12 17 19 24 26 26 29 30 32 33 33 34 35
28 25 25 24 22 19 16 14 13 12 11 8 3 5 7 6 6 7 8 9 10 10 11 14 11 10 9 7 9 13 13 9 12 11 8 11 11 11 10 9 13 14 9 6 3 4 6 3 7 14 11 11 14 12 11 9 6 2 3 5 5 4 4 3 4 5 4 3 3 3 4 1 0 4 3 15 16 14 15 16 20 26 27 29 31 34 36 35
28 25 25 24 22 18 15 13 13 15 15 8 4 6 6 8 11 12 11 12 14 13 10 9 6 4 7 8 7 11 13 10 11 9 6 10 11 12 13 11 14 16 13 9 4 4 7 4 4 13 10 11 17 15 13 12 8 3 4 6 5 4 3 3 1 2 3 3 4 4 6 3 3 3 2 14 17 12 9 10 16 25 29 29 30 34 36 35
28 28 28 21 15 15 17 14 13 17 15 6 7 8 7 10 15 17 17 16 16 15 11 7 6 5 4 7 7 11 12 9 9 8 7 7 8 13 14 11 14 17 18 16 8 5 6 4 5 14 14 11 15 13 11 13 10 5 6 8 7 4 5 3 2 2 3 3 2 3 6 4 4 4 5 11 14 12 10 11 13 16 21 25 27 32 34 33
26 23 18 9 3 12 21 18 17 19 12 4 7 8 6 11 17 23 24 19 15 13 10 9 9 8 8 6 7 11 12 10 8 7 6 5 6 14 18 11 12 19 21 19 9 5 6 3 4 12 17 11 9 9 7 8 9 4 4 6 7 5 5 5 4 3 4 3 1 3 4 3 4 4 9 11 10 11 11 11 11 14 20 24 26 30 32 30
18 12 11 7 3 13 23 22 19 16 8 6 7 7 8 10 16 24 29 23 14 11 9 10 11 9 8 8 7 9 11 12 10 7 7 8 7 11 18 14 10 17 23 21 12 7 6 5 4 7 14 11 6 7 8 6 5 4 4 5 5 4 4 5 4 4 4 4 3 1 2 3 6 3 7 10 10 10 10 9 8 13 22 27 29 31 33 31
11 6 8 6 5 19 25 20 13 8 5 6 7 9 11 11 13 18 26 26 19 16 15 14 14 12 11 11 9 7 7 10 11 9 6 9 10 7 13 18 13 13 18 17 13 8 4 4 4 4 8 7 6 10 11 9 7 6 4 5 5 4 4 3 3 4 3 4 4 4 1 4 6 2 6 8 8 8 10 10 8 12 19 25 28 30 32 32
8 7 6 8 13 22 23 12 7 7 6 7 9 12 13 13 14 15 20 24 19 17 18 16 15 15 13 10 7 6 4 4 9 10 7 10 12 8 13 24 22 16 14 10 10 12 7 4 4 4 6 7 8 14 16 13 10 8 5 4 3 3 3 4 3 4 2 3 4 4 3 4 6 2 7 8 10 12 14 12 9 14 20 23 24 24 25 29
9 16 15 5 8 16 17 6 5 7 6 10 14 17 18 15 13 13 16 18 15 13 13 12 12 13 10 8 8 8 6 3 5 8 9 10 13 15 20 29 28 19 12 7 8 12 9 5 4 3 3 8 9 12 17 16 12 8 7 6 5 6 6 4 5 5 3 4 4 3 4 3 7 2 6 9 12 15 16 12 10 16 22 23 21 18 20 25
16 22 18 9 8 13 10 4 5 6 7 11 14 17 20 17 15 15 14 13 13 11 9 10 11 11 9 8 10 8 4 3 6 7 8 8 11 21 28 31 28 18 11 8 8 10 8 5 5 1 1 6 8 7 10 13 10 6 4 5 7 10 12 7 1 2 3 5 6 5 3 4 5 1 7 9 10 11 11 11 14 18 19 19 15 13 17 23
16 15 14 10 10 14 13 8 7 6 7 11 13 14 16 16 17 20 17 16 18 15 10 10 11 10 8 9 10 8 6 5 6 7 7 8 8 18 26 31 29 16 14 19 16 13 9 5 5 5 2 5 7 6 6 7 6 4 5 7 8 9 11 8 2 2 3 6 6 7 4 5 5 3 8 8 8 8 10 13 18 19 16 16 14 12 16 23
9 5 7 11 10 11 15 18 16 10 7 9 10 11 14 14 15 22 22 18 20 21 15 12 11 11 10 10 9 9 9 8 7 7 7 6 5 5 10 23 29 20 20 27 23 13 5 4 6 7 8 8 6 6 6 9 7 6 8 11 11 10 8 6 5 4 4 4 4 7 10 8 6 5 7 8 8 9 9 11 17 19 17 16 16 16 17 20
4 3 5 8 11 11 9 14 14 9 10 12 7 8 15 14 11 16 18 16 19 22 14 8 8 8 10 11 9 9 10 8 8 11 6 5 4 7 15 12 19 27 25 23 21 12 3 4 9 8 9 10 7 6 5 8 10 9 11 13 13 14 10 5 6 7 7 7 4 8 15 14 11 11 10 9 9 9 8 12 18 21 21 20 18 18 18 19
4 8 11 9 6 5 6 9 13 12 13 14 9 9 16 16 13 11 11 13 19 17 7 3 7 10 13 13 10 8 9 8 8 8 4 6 5 8 14 18 9 19 24 15 13 10 3 3 8 9 9 10 8 9 7 5 7 6 7 12 15 16 14 9 7 7 8 8 6 11 17 16 14 13 11 11 12 11 11 15 19 19 22 24 21 20 21 21
9 10 11 11 8 8 11 17 21 17 14 13 9 10 15 16 16 13 8 9 12 9 5 5 10 14 15 14 10 7 6 7 6 2 3 5 6 8 5 10 14 7 14 14 9 6 3 2 5 6 7 8 9 11 9 7 6 5 8 8 10 13 12 11 9 7 8 7 8 13 15 12 13 14 13 15 19 19 18 19 18 15 17 21 22 22 24 24
11 9 11 15 12 13 15 17 16 12 11 11 8 9 13 15 16 15 10 7 8 6 5 9 14 15 15 14 12 7 5 7 6 3 4 4 4 6 3 3 10 14 9 7 6 5 4 5 5 3 2 2 6 10 12 11 6 5 9 10 8 9 9 9 9 8 8 6 7 15 13 8 9 10 11 16 20 21 19 18 18 16 15 15 14 15 19 24
9 10 13 13 9 9 11 11 11 9 7 7 8 9 10 12 13 12 7 4 8 10 10 14 16 13 13 15 12 7 9 10 10 10 8 7 3 2 3 5 8 12 11 8 3 6 5 4 4 4 2 1 4 7 11 12 8 8 11 10 9 9 6 5 5 4 8 7 7 12 9 6 7 7 9 13 16 15 12 14 16 13 10 8 6 6 10 15
12 14 14 11 7 7 8 9 9 8 6 8 11 11 9 11 13 10 4 4 9 13 15 16 15 9 5 8 8 7 11 12 13 15 12 9 7 6 7 12 15 12 8 6 1 5 7 4 3 4 3 2 4 8 8 7 6 8 8 8 9 7 3 4 7 9 8 7 7 7 6 5 5 7 9 9 9 9 10 13 15 12 11 8 5 2 3 5
Wind_Direction
341 341 342 343 343 344 343 342 341 341 341 339 337 334 333 333 333 332 329 328 327 324 320 315 311 307 304 302 300 298 295 289 284 278 269 259 248 241 238 235 239 241 243 251 240 234 239 245 258 267 262 252 248 244 249 245 232 231 219 170 173 142 166 185 151 157 173 140 128 123 117 116 114 116 127 136 130 116 110 113 119 121 125 130 134 140 140 139
339 340 340 341 342 342 342 341 340 340 339 339 336 334 332 331 331 331 329 328 328 326 321 316 311 308 306 303 302 300 295 292 288 278 270 262 245 227 225 229 232 234 239 244 240 235 237 251 255 249 237 239 244 233 233 236 223 226 199 148 132 131 182 184 141 151 153 127 125 126 120 113 111 123 131 124 104 100 98 103 108 111 120 129 134 138 141 143
337 339 339 339 340 340 341 339 338 338 338 338 336 334 332 330 330 330 330 329 329 328 322 318 313 309 307 303 302 300 298 299 293 289 286 262 233 217 213 222 226 229 236 240 238 229 240 264 267 261 237 234 247 228 212 223 220 226 189 75 99 121 149 145 118 133 138 127 126 122 115 111 117 119 114 112 103 101 107 114 115 120 128 134 138 139 142 147
336 337 337 338 338 339 339 338 337 336 336 336 335 334 331 329 328 329 330 328 330 329 324 320 314 312 308 303 301 299 306 309 300 308 327 247 217 209 208 215 219 223 230 230 228 218 236 258 265 272 253 231 247 236 203 207 214 220 129 111 81 97 124 126 115 128 134 134 133 126 119 119 131 126 117 120 114 113 126 131 132 134 137 139 143 145 147 149
336 335 336 336 337 337 337 336 335 335 335 334 335 333 331 329 327 329 329 328 330 328 324 320 316 316 309 303 299 296 310 326 323 356 5 285 201 200 205 209 212 217 220 221 220 215 230 254 267 277 272 244 253 256 219 194 198 51 124 125 101 84 110 117 119 131 131 134 125 111 106 106 124 129 128 128 125 136 137 137 138 139 142 143 146 149 151 152
335 335 334 335 335 336 336 334 333 333 333 333 334 333 331 329 326 328 328 328 331 327 323 317 315 315 309 304 296 291 290 272 264 36 22 12 184 189 198 203 207 208 210 210 208 213 230 253 265 271 272 260 258 260 227 194 148 76 94 89 94 90 86 115 135 142 126 119 105 103 106 103 107 111 124 122 111 132 137 139 139 141 144 146 149 151 153 156
334 334 333 334 334 334 334 333 332 331 331 331 332 332 331 328 326 326 327 328 330 329 321 313 312 309 309 302 292 290 265 253 255 302 341 324 204 183 190 200 204 201 204 205 202 210 228 250 256 253 259 253 242 239 222 187 110 100 104 99 97 99 104 117 126 116 104 103 104 113 115 111 111 100 110 105 104 125 132 138 140 144 147 149 151 153 154 156
331 332 332 332 332 332 332 331 330 329 329 328 329 331 330 329 325 323 325 325 329 330 319 309 307 306 309 300 295 300 271 263 265 286 290 275 250 208 195 197 199 200 203 203 204 208 226 251 249 245 252 245 244 245 207 138 102 109 115 111 99 99 97 82 89 98 97 96 97 100 95 100 116 118 108 100 112 125 132 138 141 145 149 152 155 156 156 157
329 330 330 330 330 330 330 330 329 327 327 327 327 328 328 328 325 322 322 322 327 329 320 308 303 305 309 298 294 297 276 282 320 264 261 257 257 240 213 201 196 200 205 207 209 209 226 246 240 237 240 250 266 260 127 110 100 112 105 104 110 107 98 93 107 105 98 95 94 93 88 96 113 121 111 111 121 127 133 138 142 147 152 156 158 158 157 159
327 327 328 328 328 329 329 328 327 326 325 325 325 325 326 326 324 321 319 319 323 328 321 306 301 305 305 291 266 272 272 345 2 217 239 255 259 252 225 204 197 200 205 211 213 212 224 237 240 247 248 256 275 240 143 140 113 117 118 120 125 116 116 120 110 104 104 104 107 107 109 112 115 118 107 116 125 132 136 138 145 150 155 159 157 158 160 163
325 326 326 326 327 327 327 327 326 324 322 322 323 323 323 323 323 319 317 317 318 326 322 307 301 303 302 276 233 235 210 277 257 189 238 253 253 250 221 199 198 203 207 214 219 219 228 243 257 266 268 259 249 201 132 121 119 129 129 123 119 115 112 109 104 113 116 115 124 127 130 124 117 118 120 128 135 138 139 142 150 153 157 158 154 159 166 166
324 324 324 324 325 325 325 325 324 323 321 320 320 321 320 319 320 318 316 315 314 321 322 310 300 301 303 264 248 237 188 202 224 233 289 269 251 242 211 199 199 202 210 218 224 227 236 252 261 265 270 263 243 175 133 136 137 141 135 123 137 131 109 119 131 135 131 131 138 137 131 126 120 130 134 139 144 143 145 150 152 155 157 153 154 165 172 168
322 322 322 322 323 323 324 323 323 322 319 318 318 319 318 315 316 316 315 313 311 313 316 311 298 299 298 269 269 249 187 184 188 237 286 284 265 221 198 195 200 207 212 220 230 234 245 257 257 264 273 277 308 103 162 157 141 143 136 122 150 137 123 154 149 143 144 140 146 148 123 121 125 137 142 149 150 146 153 156 152 155 153 149 157 169 174 170
321 321 321 321 321 321 322 321 321 320 317 316 315 316 315 312 312 312 314 312 309 307 308 306 294 294 288 277 286 233 201 194 196 239 249 256 249 197 191 185 198 218 216 223 235 237 246 258 263 275 285 286 289 135 183 149 130 138 120 115 152 134 151 161 143 153 155 148 159 162 94 133 140 142 151 159 154 151 158 156 154 155 148 148 158 168 174 173
320 319 319 319 319 319 320 320 319 318 317 314 313 315 313 309 307 309 311 309 308 304 299 299 292 293 288 281 286 225 215 216 236 244 223 234 226 193 191 183 199 219 222 230 239 244 251 257 263 276 287 291 286 219 185 108 133 141 121 136 148 123 168 159 150 172 158 160 171 158 93 143 147 148 156 164 157 157 162 156 157 154 148 152 159 169 177 175
318 317 317 317 317 318 318 318 318 316 315 314 312 313 311 306 304 306 308 307 306 300 291 294 298 298 288 280 289 247 222 217 223 221 210 221 213 197 193 188 204 216 223 233 240 252 261 266 262 258 275 293 288 240 117 114 152 141 133 145 127 125 226 162 163 177 142 142 166 147 139 147 147 151 155 169 164 161 165 159 161 156 153 158 161 174 178 174
318 317 316 315 315 316 317 318 317 315 314 314 312 311 309 304 303 306 305 303 300 292 273 220 272 301 272 255 268 230 212 212 216 212 212 212 204 200 192 195 212 215 221 231 240 251 260 265 259 255 270 279 268 228 153 155 160 137 141 140 145 164 218 150 169 166 138 140 167 165 144 138 149 148 154 171 167 165 168 165 168 160 158 162 164 179 175 171
318 317 315 314 314 313 315 318 317 315 313 313 312 312 309 305 305 306 302 297 290 281 254 199 175 312 264 237 244 226 209 209 216 215 209 202 200 200 193 197 210 216 221 227 237 246 251 246 227 241 273 258 263 225 173 174 154 152 169 161 155 170 177 156 178 173 157 161 160 140 118 136 149 150 159 169 164 169 173 173 173 159 159 163 168 180 172 171
317 317 316 313 312 312 314 317 318 317 314 312 312 310 308 308 309 307 299 267 231 246 287 217 190 221 266 255 258 234 214 210 208 211 201 192 199 201 195 197 207 217 222 220 224 232 244 244 194 221 260 244 254 235 191 171 160 164 174 178 166 172 182 169 187 198 173 165 150 138 135 144 153 161 166 166 166 172 175 177 171 156 159 164 171 179 173 176
317 317 315 314 313 311 313 316 319 318 315 314 315 315 314 319 321 326 320 270 269 283 284 255 223 236 265 278 278 243 207 209 198 200 195 186 196 203 195 195 205 215 220 205 207 216 220 238 207 218 241 245 254 249 235 196 175 171 173 184 176 173 185 174 182 187 160 167 166 147 150 152 155 166 169 167 169 171 171 173 167 159 162 167 175 180 177 180
318 317 315 314 313 311 313 315 317 320 316 311 313 315 311 309 304 307 309 292 291 292 282 270 251 247 262 275 275 255 209 201 193 192 191 186 195 204 188 189 205 209 214 216 215 213 207 222 225 221 235 243 252 251 248 241 211 188 180 187 183 178 182 170 170 170 157 158 147 146 161 159 157 166 171 170 172 170 169 168 167 166 167 174 183 182 180 181
319 317 315 314 312 313 313 314 319 319 310 303 304 302 302 310 308 302 304 294 292 292 281 275 266 256 262 266 267 260 219 186 192 191 187 188 196 198 173 181 212 198 205 221 219 208 202 223 221 221 234 237 246 248 241 250 251 234 200 186 190 171 155 160 166 176 171 148 150 166 169 158 160 169 171 173 179 175 170 169 171 170 170 180 187 180 179 181
319 317 316 313 312 313 313 316 319 311 299 293 292 293 312 331 328 305 294 288 291 290 281 271 261 253 256 256 261 255 214 177 195 192 185 190 196 195 174 174 218 202 198 218 220 207 197 221 219 220 231 233 240 243 239 249 253 257 240 193 193 159 145 160 179 183 177 152 166 170 156 149 161 169 171 174 181 176 169 171 172 173 176 183 186 181 180 184
319 318 316 313 313 312 313 316 309 296 288 279 287 317 333 334 334 319 295 289 292 285 279 267 254 249 247 249 256 242 199 180 196 191 189 195 195 199 189 182 203 212 204 210 221 228 206 208 222 228 233 234 233 225 231 244 244 255 253 235 207 172 165 167 173 177 163 158 173 156 133 166 169 167 172 175 181 175 167 169 170 173 179 182 184 184 183 187
318 318 316 315 314 312 313 315 305 289 279 273 306 339 328 325 342 348 313 296 278 275 279 261 245 245 239 246 248 208 179 186 200 191 192 199 197 197 197 188 194 218 210 206 218 232 218 202 215 231 235 238 241 224 221 227 249 267 251 246 236 202 175 157 158 166 155 177 182 146 125 222 208 177 177 178 183 177 169 169 168 170 176 179 180 183 185 188
316 316 315 315 315 314 313 311 302 293 283 282 309 317 305 313 348 2 339 296 260 263 266 221 215 227 224 233 221 182 174 199 204 197 191 198 204 200 197 188 189 217 211 206 217 227 223 207 211 229 231 230 238 241 223 210 238 272 236 242 256 277 238 151 157 165 166 199 182 156 148 204 233 199 187 177 176 183 176 169 168 169 174 177 177 182 186 187
314 314 313 312 316 318 313 304 299 301 300 300 301 297 296 309 341 356 347 275 252 236 207 180 181 199 204 209 197 180 179 188 199 207 191 189 206 212 214 190 180 215 214 203 210 210 221 213 209 224 231 226 224 236 233 200 210 257 228 217 232 269 259 170 166 168 161 189 189 170 148 125 209 214 192 172 161 188 195 178 172 171 175 178 178 181 185 186
312 311 310 308 312 316 310 301 302 310 319 318 305 299 299 307 335 350 345 267 273 229 167 164 174 188 190 190 190 191 204 181 185 208 192 184 201 212 220 207 190 211 219 216 206 194 218 227 214 213 223 238 219 219 233 208 195 236 241 225 210 238 252 180 166 174 160 171 213 189 147 119 206 211 184 171 170 198 212 202 183 173 177 180 180 182 184 186
309 308 306 303 302 305 298 294 300 316 325 311 306 305 306 314 332 338 263 255 291 275 155 163 166 179 183 182 189 192 204 206 191 189 185 183 198 211 229 229 214 208 216 231 232 194 207 227 228 213 204 230 241 230 236 220 189 221 246 263 250 227 240 181 161 174 148 160 225 206 168 151 204 190 173 174 187 205 207 207 193 179 179 180 182 183 183 184
306 304 304 301 297 296 289 285 292 316 319 317 321 326 331 329 323 281 214 236 288 275 153 161 154 174 188 187 187 185 196 220 206 182 177 177 193 210 233 241 236 225 216 226 236 232 217 216 226 229 193 202 234 240 230 216 204 215 234 261 270 239 225 145 151 123 88 176 252 224 181 171 196 195 180 180 195 201 194 193 196 184 181 182 184 184 183 183
302 300 300 297 295 294 286 280 284 309 311 317 317 325 344 332 226 220 225 255 289 227 156 167 158 168 188 196 184 181 194 222 211 185 176 172 189 205 224 239 239 241 234 220 226 247 240 216 217 227 206 198 216 235 214 197 215 224 219 224 253 275 9 25 12 72 94 238 253 262 213 187 204 215 198 201 203 195 183 187 193 187 185 185 184 184 183 183
299 296 295 293 290 284 276 275 284 291 293 296 298 313 346 256 215 221 238 272 280 193 167 178 177 172 190 198 189 181 189 221 225 200 177 168 184 198 206 219 212 210 234 222 211 232 246 237 205 210 225 213 206 223 202 187 221 231 231 205 147 268 251 14 343 8 195 237 235 283 300 239 222 208 198 205 208 192 186 189 189 187 186 184 185 185 183 183
298 296 293 288 283 275 268 273 279 278 281 284 291 303 303 240 221 222 237 252 255 224 174 168 176 182 191 192 189 185 186 208 227 212 178 172 185 196 206 219 219 209 215 218 210 207 233 250 218 195 219 224 208 196 178 190 223 217 218 206 151 132 163 177 250 232 249 264 243 252 277 271 269 233 195 199 205 193 188 187 187 191 191 184 184 186 184 183
300 300 296 286 277 270 266 270 268 268 269 260 280 270 220 240 237 234 239 238 252 267 278 234 183 181 193 196 191 189 189 204 219 210 175 172 190 196 201 218 225 224 215 218 222 204 208 236 229 209 188 191 204 204 171 179 212 217 203 196 178 143 155 173 176 189 229 259 252 240 238 226 243 261 199 193 195 183 183 189 188 192 193 187 185 185 183 183
304 304 297 286 276 267 263 261 251 247 240 222 239 231 215 229 233 243 247 242 254 264 272 273 226 181 188 201 195 195 197 203 216 217 182 168 188 199 193 210 221 223 218 214 223 218 216 219 221 223 193 167 188 223 205 186 207 221 184 177 202 182 151 166 196 189 196 241 257 237 229 199 214 251 122 157 170 168 180 189 184 185 187 183 183 185 185 184
309 307 299 288 275 263 252 244 234 220 202 191 219 225 218 231 229 236 246 246 255 260 270 275 246 193 180 189 201 202 198 200 211 217 194 173 182 196 196 202 215 221 221 210 211 208 213 245 207 199 196 179 187 212 220 206 208 198 148 175 211 218 152 146 211 203 178 231 248 228 251 285 204 298 89 131 147 162 173 175 172 175 175 174 178 185 188 186
316 314 304 287 271 259 237 218 212 198 183 180 231 230 216 233 239 246 258 265 272 279 294 297 279 228 179 177 202 204 190 190 202 207 199 180 180 192 199 203 206 218 231 220 226 223 199 246 212 174 189 206 192 204 228 227 220 182 166 181 187 246 238 138 149 226 179 217 229 214 231 203 147 261 170 136 147 161 152 142 159 168 169 172 178 185 188 187
322 321 309 292 269 240 214 201 194 183 174 185 240 241 233 235 240 247 257 271 284 289 291 289 302 309 230 184 188 198 186 178 191 201 203 185 177 186 194 206 200 208 232 227 221 251 214 231 226 180 187 202 188 196 230 238 240 210 169 170 159 208 240 173 137 203 185 212 259 249 241 214 183 210 175 146 147 145 129 128 146 157 163 169 177 183 185 185
327 325 309 305 277 204 196 194 189 177 172 204 227 230 240 241 244 252 263 278 290 290 286 281 284 284 266 229 191 192 186 182 190 200 203 186 178 186 188 201 197 196 222 230 219 250 240 244 260 192 182 181 178 190 208 232 251 234 172 173 167 182 201 185 187 178 163 171 205 283 286 278 265 216 165 155 148 136 126 129 143 152 156 162 171 175 175 179
334 316 293 327 330 196 182 180 180 173 184 224 224 231 237 242 248 254 262 271 277 277 281 287 285 280 283 281 250 214 188 185 195 200 198 183 177 188 186 193 203 195 210 225 222 229 231 227 263 205 179 175 179 192 191 197 220 220 202 190 185 198 186 182 208 192 157 148 152 218 304 291 287 265 141 140 138 133 130 128 138 151 156 164 170 173 175 179
344 292 297 13 149 181 170 168 180 185 220 227 227 243 242 246 254 255 258 261 261 260 259 267 275 275 278 280 269 242 197 185 196 200 193 181 181 195 190 192 205 202 203 218 222 219 217 208 224 200 180 188 187 178 185 199 201 199 210 193 185 198 171 159 236 223 151 137 155 151 173 281 294 16 96 111 114 113 121 126 128 135 149 162 169 175 185 188
353 266 268 91 130 171 165 163 208 208 222 236 235 244 246 250 256 258 262 266 265 259 250 249 258 259 260 271 290 295 280 207 202 200 189 187 190 196 193 193 200 208 208 211 212 216 226 218 213 208 191 198 194 178 182 202 210 205 216 209 194 215 185 158 207 231 186 163 175 129 114 272 292 43 90 99 107 107 106 110 123 133 144 160 169 175 188 194
323 280 263 175 153 187 176 179 238 208 225 247 243 249 251 250 254 256 259 263 265 262 250 246 257 259 259 274 284 292 306 303 258 228 206 200 194 190 193 194 196 205 212 204 198 209 224 221 209 241 205 195 200 186 181 191 203 209 216 202 195 227 231 192 165 179 187 185 179 109 96 249 281 337 104 109 113 114 105 94 108 130 141 155 166 174 183 192
313 297 276 231 205 219 217 226 227 216 240 243 242 251 251 249 252 253 256 259 258 262 259 251 258 256 244 247 255 273 310 301 295 278 238 229 201 189 194 196 197 201 200 187 180 187 206 214 183 183 321 189 197 195 185 190 194 198 212 207 204 210 214 222 208 133 187 196 165 123 123 225 252 132 116 109 99 109 118 119 124 129 137 148 155 167 179 187
319 307 288 267 233 231 241 248 244 252 254 245 245 248 248 252 251 246 251 260 259 264 268 262 276 281 262 249 251 272 289 260 283 301 275 267 223 193 195 196 195 202 202 189 177 170 186 207 172 168 191 183 189 202 192 185 187 192 216 236 243 223 206 209 190 110 209 220 166 130 150 225 238 160 136 130 111 120 145 147 142 140 143 152 159 165 175 180
322 307 301 307 293 260 246 244 248 257 263 264 262 250 245 246 246 245 246 253 257 261 264 263 279 296 289 275 265 265 264 248 255 277 286 295 267 228 224 205 192 194 208 200 186 170 172 197 178 171 183 187 199 215 182 160 168 187 202 225 250 254 228 185 158 168 186 193 196 166 154 171 211 190 163 161 146 145 157 150 146 148 149 155 167 174 178 180
291 305 335 337 325 313 280 251 247 251 260 264 269 272 264 255 248 243 237 240 249 250 254 269 279 286 287 286 285 274 268 262 253 259 288 338 323 335 328 283 204 191 203 206 194 182 150 183 178 164 180 193 207 238 217 170 180 190 191 206 232 247 247 209 182 199 168 146 215 200 158 160 193 193 178 175 158 152 163 153 153 163 168 168 169 175 182 184
289 322 336 347 329 315 327 299 288 291 282 271 259 261 269 266 262 252 236 248 252 240 232 295 281 271 271 275 286 288 281 276 259 259 329 7 355 356 340 326 289 202 200 197 186 182 130 155 179 173 190 207 222 241 246 210 204 216 210 205 210 223 239 236 204 184 157 155 204 199 171 167 184 185 179 178 169 166 166 153 151 163 173 176 177 179 184 187
333 332 328 338 320 287 297 295 291 294 292 287 273 254 260 261 262 263 256 263 263 236 197 236 255 260 264 267 276 286 296 299 279 264 31 15 7 13 339 324 338 290 209 186 173 170 131 157 199 187 192 219 242 249 255 251 243 275 287 254 214 211 226 232 225 203 183 179 173 178 181 180 182 185 184 180 171 164 156 149 149 154 161 172 180 182 184 187
353 345 325 324 308 287 292 294 295 300 294 294 288 262 260 255 255 262 259 270 292 284 249 252 251 252 257 261 268 284 333 354 338 327 28 44 38 22 358 295 331 328 288 220 182 157 162 203 211 183 154 246 256 252 248 249 259 276 279 277 257 239 235 233 234 225 220 220 162 164 182 200 193 181 170 168 161 151 146 149 156 158 154 161 175 184 189 191
359 345 327 319 304 296 308 308 303 298 290 296 290 276 272 265 268 276 265 279 309 299 289 278 259 247 254 259 266 309 355 4 350 337 356 24 27 0 347 301 305 322 314 284 206 146 162 208 185 144 91 314 275 264 237 228 246 262 260 262 257 252 250 244 250 237 224 217 159 156 177 208 204 167 140 146 145 138 137 139 140 142 143 150 170 202 216 211
355 343 336 325 299 297 310 307 298 293 302 320 313 309 308 302 308 316 310 327 314 299 304 301 278 259 267 271 277 335 352 351 343 332 328 327 317 318 319 307 303 306 302 299 327 139 153 152 131 128 129 208 271 281 255 220 225 240 247 260 262 269 319 342 331 309 262 210 155 157 173 167 152 127 115 120 120 115 118 118 113 111 114 112 108 159 239 246
Height
1529 1528 1527 1525 1524 1522 1521 1519 1518 1516 1515 1513 1511 1510 1509 1508 1506 1505 1503 1502 1501 1499 1497 1494 1493 1492 1491 1490 1489 1489 1488 1487 1487 1486 1482 1481 1485 1487 1487 1489 1490 1491 1492 1493 1494 1494 1493 1492 1491 1490 1492 1492 1491 1488 1486 1484 1482 1484 1490 1502 1511 1512 1510 1503 1501 1504 1504 1504 1501 1500 1502 1506 1509 1510 1511 1513 1515 1516 1519 1523 1526 1529 1532 1535 1539 1541 1544 1547
1529 1528 1526 1525 1523 1522 1520 1519 1517 1516 1514 1513 1511 1510 1508 1507 1505 1504 1503 1501 1500 1498 1496 1493 1492 1490 1489 1489 1488 1487 1486 1485 1484 1481 1477 1479 1483 1484 1485 1487 1488 1490 1490 1492 1493 1493 1492 1491 1491 1490 1491 1489 1487 1486 1484 1482 1481 1483 1488 1498 1504 1503 1499 1492 1493 1495 1497 1502 1500 1499 1502 1505 1508 1509 1511 1514 1516 1517 1521 1525 1528 1531 1535 1538 1541 1543 1545 1547
1528 1527 1526 1524 1523 1521 1520 1518 1517 1515 1514 1512 1511 1509 1507 1506 1505 1503 1502 1500 1499 1497 1495 1493 1491 1489 1488 1488 1487 1486 1485 1484 1481 1477 1475 1477 1479 1480 1483 1485 1487 1488 1489 1491 1492 1492 1491 1490 1490 1490 1489 1486 1484 1484 1482 1480 1480 1480 1486 1499 1496 1489 1492 1490 1491 1494 1496 1498 1498 1500 1503 1505 1508 1509 1511 1514 1517 1520 1523 1526 1528 1532 1536 1539 1541 1543 1545 1547
1528 1527 1525 1524 1523 1521 1520 1518 1516 1515 1513 1512 1510 1509 1507 1505 1504 1502 1501 1500 1498 1496 1494 1492 1490 1489 1488 1487 1486 1486 1484 1483 1479 1475 1474 1474 1476 1478 1481 1483 1485 1487 1488 1490 1490 1490 1490 1489 1488 1487 1486 1484 1481 1480 1478 1478 1480 1477 1483 1495 1489 1482 1490 1492 1491 1494 1495 1497 1498 1500 1503 1506 1509 1510 1511 1513 1520 1525 1524 1526 1527 1530 1535 1538 1541 1543 1545 1547
1527 1526 1524 1523 1522 1520 1519 1517 1516 1514 1513 1511 1510 1508 1506 1504 1503 1502 1500 1499 1497 1495 1493 1492 1490 1489 1487 1486 1486 1485 1486 1487 1478 1473 1474 1474 1475 1477 1480 1483 1485 1486 1487 1489 1489 1489 1489 1487 1486 1484 1484 1482 1480 1480 1478 1476 1477 1478 1480 1483 1481 1482 1488 1490 1490 1493 1494 1495 1497 1500 1504 1508 1509 1511 1513 1514 1520 1524 1523 1527 1528 1531 1534 1537 1541 1543 1545 1547
1526 1525 1524 1522 1521 1520 1518 1517 1515 1513 1512 1510 1509 1507 1506 1504 1502 1501 1499 1498 1497 1495 1493 1492 1490 1489 1487 1486 1485 1484 1487 1486 1476 1473 1474 1474 1476 1477 1479 1482 1483 1486 1486 1487 1487 1487 1487 1486 1486 1484 1483 1481 1480 1481 1477 1474 1475 1481 1483 1479 1480 1484 1486 1489 1490 1492 1493 1495 1498 1502 1506 1508 1510 1512 1513 1514 1518 1519 1522 1526 1529 1532 1535 1538 1541 1543 1545 1547
1525 1524 1523 1521 1520 1519 1517 1516 1514 1513 1511 1510 1508 1506 1505 1503 1501 1500 1498 1497 1496 1494 1492 1491 1490 1488 1487 1485 1484 1484 1485 1480 1473 1474 1475 1475 1477 1477 1479 1481 1482 1485 1485 1486 1485 1486 1486 1485 1485 1483 1483 1482 1479 1477 1474 1472 1473 1481 1485 1481 1482 1485 1486 1489 1489 1492 1495 1496 1499 1502 1506 1508 1511 1514 1514 1515 1517 1519 1523 1527 1530 1534 1536 1539 1541 1543 1545 1546
1524 1523 1522 1520 1519 1518 1517 1515 1514 1512 1510 1508 1507 1506 1504 1502 1501 1499 1497 1496 1495 1493 1492 1490 1489 1488 1487 1485 1483 1484 1482 1475 1472 1474 1474 1475 1477 1477 1479 1480 1482 1483 1483 1484 1483 1484 1486 1485 1485 1483 1482 1480 1476 1474 1471 1472 1474 1478 1484 1482 1483 1486 1487 1489 1490 1493 1496 1498 1501 1503 1507 1509 1512 1514 1514 1516 1519 1521 1524 1528 1531 1534 1537 1539 1541 1542 1544 1546
1523 1522 1521 1519 1518 1517 1515 1514 1513 1511 1509 1507 1506 1505 1503 1502 1500 1498 1496 1495 1494 1492 1491 1490 1489 1487 1486 1484 1484 1484 1477 1472 1472 1473 1474 1475 1476 1477 1478 1479 1481 1482 1482 1482 1481 1484 1485 1483 1482 1480 1479 1476 1474 1472 1469 1477 1482 1477 1480 1482 1484 1487 1488 1490 1491 1494 1497 1500 1503 1506 1509 1512 1513 1515 1517 1519 1520 1523 1525 1529 1532 1534 1537 1539 1541 1542 1544 1546
1522 1521 1520 1518 1517 1516 1514 1513 1511 1510 1508 1506 1505 1503 1502 1500 1499 1497 1495 1494 1493 1491 1490 1489 1488 1487 1486 1483 1484 1483 1474 1470 1472 1472 1474 1475 1475 1476 1477 1478 1480 1480 1481 1480 1479 1481 1481 1480 1479 1478 1478 1474 1472 1471 1468 1476 1481 1476 1478 1482 1484 1487 1488 1490 1493 1495 1499 1502 1505 1509 1513 1513 1514 1517 1522 1522 1521 1524 1526 1529 1532 1534 1537 1539 1540 1542 1544 1546
1521 1520 1518 1517 1516 1514 1513 1511 1510 1508 1507 1505 1504 1502 1500 1499 1498 1496 1494 1493 1492 1490 1489 1488 1487 1486 1485 1483 1483 1479 1471 1471 1472 1472 1474 1474 1474 1475 1476 1477 1478 1480 1480 1478 1477 1479 1480 1479 1479 1480 1480 1475 1471 1471 1469 1472 1475 1475 1479 1484 1486 1487 1489 1491 1493 1497 1499 1503 1507 1509 1512 1514 1516 1520 1522 1522 1523 1525 1526 1529 1532 1534 1536 1537 1540 1542 1543 1545
1520 1518 1517 1515 1514 1513 1511 1510 1508 1507 1505 1504 1502 1501 1499 1498 1496 1495 1493 1492 1490 1489 1488 1487 1486 1485 1484 1482 1478 1473 1470 1472 1473 1473 1473 1472 1473 1474 1475 1477 1477 1479 1479 1476 1476 1479 1480 1479 1479 1481 1479 1475 1472 1473 1472 1470 1472 1475 1479 1488 1491 1489 1493 1493 1493 1497 1498 1503 1506 1508 1518 1522 1520 1521 1520 1521 1523 1525 1527 1529 1531 1533 1535 1536 1539 1541 1543 1544
1518 1517 1515 1514 1513 1511 1510 1508 1507 1506 1504 1502 1501 1499 1498 1496 1494 1493 1492 1491 1489 1488 1487 1486 1485 1484 1484 1479 1471 1468 1470 1471 1472 1473 1472 1471 1472 1473 1475 1477 1477 1478 1478 1477 1477 1478 1480 1478 1477 1478 1476 1474 1473 1473 1472 1468 1472 1478 1479 1488 1496 1500 1501 1494 1492 1496 1497 1502 1502 1507 1529 1533 1522 1520 1520 1521 1523 1525 1527 1529 1530 1532 1534 1535 1538 1541 1542 1544
1517 1515 1514 1513 1511 1510 1508 1507 1505 1504 1502 1501 1499 1498 1496 1494 1493 1491 1490 1489 1488 1487 1486 1485 1484 1483 1483 1476 1468 1468 1469 1469 1471 1472 1472 1472 1472 1473 1475 1476 1477 1478 1478 1477 1477 1478 1478 1477 1476 1475 1472 1472 1471 1471 1471 1470 1474 1480 1485 1491 1499 1511 1510 1493 1490 1496 1499 1503 1497 1506 1532 1535 1523 1520 1520 1522 1523 1525 1527 1528 1530 1532 1533 1536 1538 1541 1542 1543
1515 1514 1512 1511 1510 1508 1507 1505 1504 1502 1501 1499 1497 1496 1494 1492 1490 1489 1489 1487 1486 1486 1484 1484 1483 1483 1482 1473 1468 1469 1468 1468 1469 1469 1472 1472 1471 1473 1474 1475 1477 1478 1478 1478 1477 1477 1477 1476 1476 1474 1470 1469 1470 1473 1476 1478 1478 1481 1496 1505 1503 1510 1510 1496 1490 1493 1499 1502 1495 1506 1531 1532 1522 1519 1519 1521 1523 1524 1526 1527 1529 1531 1533 1536 1538 1540 1542 1543
1514 1512 1511 1509 1508 1507 1505 1504 1502 1500 1499 1497 1495 1494 1493 1490 1488 1487 1487 1485 1485 1484 1483 1484 1482 1483 1482 1473 1467 1468 1468 1467 1467 1469 1471 1471 1471 1472 1474 1475 1476 1477 1478 1478 1477 1477 1476 1475 1474 1472 1471 1470 1472 1477 1483 1490 1489 1486 1498 1510 1508 1508 1511 1503 1494 1490 1493 1499 1498 1506 1524 1528 1521 1518 1519 1521 1522 1523 1525 1526 1528 1530 1532 1534 1537 1539 1540 1542
1513 1511 1509 1508 1506 1505 1504 1502 1500 1498 1497 1496 1493 1492 1491 1488 1486 1485 1484 1483 1483 1481 1482 1483 1482 1482 1478 1470 1467 1466 1465 1466 1467 1468 1469 1470 1472 1472 1474 1475 1475 1477 1477 1478 1478 1476 1475 1474 1474 1474 1472 1472 1473 1478 1493 1504 1502 1497 1498 1505 1506 1506 1510 1510 1502 1491 1490 1499 1503 1504 1514 1521 1518 1515 1518 1520 1521 1523 1524 1526 1527 1529 1531 1533 1536 1538 1539 1541
1511 1510 1508 1506 1505 1503 1502 1501 1499 1497 1495 1494 1492 1490 1488 1486 1484 1483 1481 1481 1481 1481 1482 1480 1482 1485 1476 1465 1464 1463 1462 1465 1465 1466 1468 1469 1471 1471 1473 1474 1474 1476 1476 1477 1476 1474 1475 1472 1472 1478 1477 1477 1475 1480 1498 1503 1498 1500 1501 1504 1506 1504 1507 1511 1506 1496 1491 1499 1505 1507 1514 1518 1516 1514 1516 1518 1520 1522 1523 1525 1527 1528 1530 1533 1534 1536 1537 1539
1509 1508 1507 1505 1503 1502 1500 1499 1498 1495 1493 1492 1491 1489 1486 1484 1482 1481 1479 1479 1479 1480 1480 1477 1477 1480 1471 1461 1461 1461 1462 1464 1464 1465 1467 1468 1470 1471 1472 1474 1475 1475 1475 1477 1476 1472 1473 1473 1476 1485 1486 1483 1478 1477 1485 1484 1483 1490 1493 1496 1503 1505 1504 1503 1500 1491 1489 1500 1506 1508 1515 1516 1515 1515 1514 1516 1518 1520 1522 1524 1526 1527 1529 1532 1534 1535 1536 1538
1507 1506 1505 1503 1502 1500 1499 1498 1497 1494 1492 1490 1489 1488 1485 1484 1482 1481 1479 1478 1477 1475 1474 1473 1470 1469 1463 1459 1460 1462 1461 1462 1463 1463 1465 1467 1468 1469 1471 1473 1473 1474 1474 1477 1478 1471 1472 1481 1486 1488 1486 1479 1473 1468 1469 1469 1470 1478 1484 1489 1494 1499 1501 1494 1491 1486 1483 1500 1507 1504 1510 1512 1513 1513 1511 1514 1516 1517 1520 1522 1524 1526 1528 1531 1533 1534 1535 1537
1506 1505 1503 1501 1500 1498 1497 1496 1495 1494 1491 1489 1488 1487 1485 1485 1485 1483 1479 1475 1473 1471 1469 1468 1468 1465 1460 1458 1458 1460 1460 1460 1462 1462 1464 1466 1466 1468 1469 1470 1472 1476 1474 1473 1474 1470 1474 1487 1487 1480 1476 1471 1468 1464 1463 1466 1469 1473 1479 1485 1488 1492 1493 1486 1484 1484 1480 1496 1507 1502 1507 1512 1510 1510 1508 1510 1513 1514 1517 1519 1522 1524 1527 1529 1531 1533 1534 1536
1504 1503 1501 1500 1498 1497 1496 1494 1494 1492 1490 1489 1488 1486 1485 1485 1485 1483 1480 1474 1468 1468 1467 1464 1464 1462 1458 1456 1455 1457 1460 1459 1460 1461 1462 1464 1465 1466 1466 1468 1473 1475 1472 1471 1475 1478 1482 1486 1480 1471 1467 1465 1466 1462 1462 1466 1469 1473 1475 1480 1487 1486 1487 1486 1482 1481 1481 1494 1506 1502 1507 1511 1506 1505 1506 1506 1509 1511 1513 1515 1518 1521 1524 1527 1529 1530 1532 1535
1503 1501 1500 1498 1496 1495 1494 1493 1492 1490 1489 1488 1486 1485 1484 1484 1483 1482 1482 1476 1467 1464 1464 1461 1459 1458 1454 1452 1451 1453 1455 1456 1458 1459 1459 1461 1462 1463 1464 1467 1472 1473 1472 1474 1478 1485 1488 1483 1471 1465 1463 1465 1468 1463 1463 1468 1469 1472 1474 1481 1487 1481 1486 1496 1489 1482 1481 1488 1499 1501 1505 1508 1504 1504 1504 1504 1506 1507 1510 1512 1514 1518 1520 1523 1525 1527 1530 1532
1500 1499 1499 1496 1495 1493 1492 1492 1490 1489 1488 1485 1485 1485 1484 1484 1482 1481 1479 1475 1468 1459 1456 1456 1455 1453 1449 1447 1448 1448 1450 1453 1455 1455 1457 1459 1459 1461 1463 1464 1469 1473 1472 1471 1474 1480 1481 1473 1463 1462 1462 1464 1469 1467 1466 1472 1474 1472 1470 1475 1481 1476 1478 1486 1484 1481 1482 1486 1490 1498 1512 1512 1505 1508 1507 1502 1503 1504 1506 1509 1511 1514 1516 1520 1522 1524 1527 1529
1498 1498 1496 1494 1494 1491 1490 1491 1488 1488 1486 1484 1485 1484 1484 1484 1481 1480 1477 1477 1473 1456 1449 1450 1449 1448 1445 1444 1446 1444 1447 1450 1451 1453 1455 1455 1457 1459 1460 1461 1467 1473 1471 1469 1472 1476 1473 1464 1460 1463 1464 1463 1467 1469 1466 1470 1477 1475 1466 1464 1467 1469 1472 1476 1478 1482 1493 1500 1489 1494 1524 1528 1509 1507 1508 1502 1502 1502 1502 1504 1507 1511 1513 1516 1519 1521 1524 1526
1496 1496 1494 1494 1492 1489 1489 1488 1487 1487 1484 1483 1485 1482 1483 1481 1480 1480 1476 1481 1479 1456 1445 1445 1443 1443 1440 1441 1443 1443 1450 1451 1447 1451 1452 1454 1455 1455 1459 1460 1461 1467 1466 1464 1468 1470 1465 1458 1457 1462 1464 1464 1466 1468 1463 1463 1476 1480 1465 1454 1457 1462 1470 1475 1476 1483 1498 1504 1486 1484 1515 1530 1517 1508 1503 1500 1502 1502 1500 1501 1503 1506 1510 1512 1514 1517 1520 1522
1495 1494 1492 1493 1491 1489 1487 1485 1487 1487 1483 1484 1482 1481 1482 1479 1480 1479 1479 1495 1483 1446 1437 1439 1437 1437 1434 1436 1439 1444 1455 1452 1446 1448 1447 1451 1454 1452 1459 1460 1460 1463 1457 1460 1472 1468 1458 1458 1459 1459 1462 1465 1468 1468 1460 1457 1474 1478 1458 1450 1456 1460 1468 1473 1474 1481 1488 1489 1486 1481 1495 1520 1525 1511 1498 1498 1503 1504 1502 1501 1500 1501 1504 1507 1509 1512 1515 1518
1493 1492 1491 1490 1491 1490 1486 1484 1486 1484 1484 1483 1479 1481 1480 1478 1483 1478 1488 1510 1476 1430 1430 1433 1430 1433 1431 1435 1437 1439 1447 1445 1446 1448 1443 1448 1452 1450 1456 1456 1457 1460 1451 1460 1476 1465 1453 1458 1459 1457 1462 1465 1465 1461 1452 1453 1467 1467 1450 1449 1455 1456 1462 1467 1472 1479 1479 1487 1499 1490 1488 1516 1527 1508 1496 1499 1504 1506 1504 1499 1498 1497 1499 1502 1505 1508 1510 1513
1491 1490 1489 1488 1489 1489 1486 1483 1483 1483 1484 1481 1479 1481 1478 1481 1483 1477 1496 1506 1459 1425 1431 1430 1429 1432 1430 1433 1436 1435 1439 1440 1443 1444 1442 1446 1448 1448 1453 1451 1451 1455 1450 1454 1465 1459 1450 1451 1449 1451 1460 1462 1457 1450 1445 1450 1459 1454 1446 1450 1454 1454 1456 1462 1473 1479 1480 1494 1506 1493 1486 1508 1521 1509 1502 1505 1506 1504 1499 1495 1494 1494 1495 1498 1500 1503 1506 1509
1488 1487 1487 1485 1485 1486 1485 1482 1482 1483 1482 1479 1480 1480 1478 1482 1482 1491 1511 1494 1448 1431 1431 1428 1430 1431 1430 1435 1436 1435 1437 1438 1437 1437 1440 1443 1446 1447 1448 1448 1447 1451 1452 1450 1454 1451 1442 1441 1441 1443 1450 1450 1447 1445 1442 1445 1448 1446 1450 1456 1459 1459 1458 1463 1470 1475 1490 1503 1499 1487 1482 1494 1512 1511 1501 1498 1493 1489 1489 1492 1492 1490 1491 1494 1495 1498 1502 1505
1485 1485 1484 1483 1482 1483 1482 1480 1481 1482 1481 1480 1480 1478 1481 1481 1483 1502 1505 1470 1443 1437 1430 1430 1431 1427 1431 1437 1438 1437 1436 1436 1433 1434 1440 1442 1445 1448 1449 1452 1451 1454 1459 1456 1454 1449 1441 1443 1441 1437 1437 1438 1442 1445 1441 1439 1441 1447 1455 1462 1470 1473 1469 1474 1477 1479 1501 1510 1492 1480 1477 1485 1504 1507 1493 1483 1473 1471 1479 1484 1485 1486 1487 1489 1492 1496 1499 1502
1482 1482 1481 1481 1480 1479 1478 1478 1479 1481 1481 1481 1481 1479 1482 1486 1491 1497 1482 1457 1451 1440 1426 1430 1430 1426 1431 1434 1436 1436 1437 1438 1433 1432 1438 1442 1448 1449 1450 1455 1455 1463 1471 1464 1459 1455 1448 1444 1437 1434 1433 1432 1442 1452 1448 1443 1444 1452 1458 1466 1483 1492 1490 1496 1496 1493 1503 1502 1483 1474 1476 1484 1491 1484 1477 1473 1467 1466 1470 1471 1474 1479 1483 1487 1490 1493 1496 1499
1479 1478 1477 1477 1476 1474 1474 1476 1477 1480 1480 1480 1481 1479 1483 1495 1496 1482 1466 1460 1451 1429 1418 1424 1423 1423 1429 1432 1435 1433 1435 1439 1433 1431 1434 1438 1447 1449 1448 1447 1445 1458 1468 1462 1462 1463 1458 1447 1435 1437 1437 1429 1437 1452 1459 1457 1454 1458 1462 1470 1487 1498 1507 1514 1509 1504 1505 1494 1477 1470 1478 1489 1484 1469 1462 1463 1461 1460 1462 1466 1471 1474 1478 1483 1486 1490 1494 1496
1476 1475 1473 1472 1471 1470 1471 1474 1475 1477 1478 1479 1481 1480 1487 1498 1488 1467 1460 1456 1440 1425 1421 1421 1420 1424 1426 1430 1432 1428 1434 1439 1430 1430 1434 1438 1449 1451 1449 1446 1441 1447 1455 1457 1460 1460 1467 1462 1444 1439 1438 1431 1433 1442 1449 1452 1454 1456 1452 1460 1476 1484 1498 1510 1506 1506 1506 1495 1481 1476 1483 1490 1483 1467 1454 1449 1451 1456 1462 1466 1469 1471 1474 1478 1482 1487 1491 1493
1472 1472 1469 1466 1467 1467 1468 1471 1472 1474 1476 1477 1479 1483 1489 1490 1476 1464 1457 1445 1434 1431 1427 1420 1420 1427 1429 1428 1426 1422 1429 1436 1429 1429 1433 1438 1447 1449 1447 1446 1441 1442 1450 1460 1458 1451 1461 1461 1437 1429 1428 1426 1434 1434 1431 1443 1456 1452 1443 1456 1470 1468 1474 1488 1490 1488 1490 1494 1490 1483 1481 1475 1466 1456 1443 1442 1451 1456 1461 1464 1466 1470 1473 1476 1482 1485 1487 1491
1469 1467 1465 1462 1461 1463 1465 1468 1469 1471 1473 1476 1481 1483 1480 1473 1464 1458 1447 1435 1434 1433 1430 1426 1421 1426 1432 1429 1427 1422 1422 1427 1429 1431 1432 1434 1440 1442 1441 1440 1436 1437 1442 1452 1453 1449 1459 1454 1428 1423 1426 1423 1429 1430 1425 1438 1454 1450 1449 1461 1459 1450 1459 1479 1487 1478 1481 1500 1496 1481 1478 1470 1464 1461 1447 1445 1455 1457 1460 1463 1464 1469 1472 1476 1480 1481 1484 1488
1466 1463 1460 1457 1457 1459 1462 1464 1466 1468 1470 1474 1479 1476 1466 1459 1454 1447 1437 1431 1432 1429 1434 1440 1426 1421 1430 1430 1428 1425 1422 1425 1428 1431 1433 1433 1435 1435 1435 1433 1431 1431 1431 1438 1445 1442 1449 1452 1431 1424 1434 1426 1420 1427 1425 1425 1436 1448 1457 1455 1447 1449 1457 1471 1489 1489 1492 1506 1495 1477 1480 1479 1478 1476 1459 1452 1459 1461 1461 1461 1461 1465 1469 1473 1475 1478 1482 1484
1464 1460 1456 1451 1451 1454 1458 1461 1463 1466 1468 1473 1476 1468 1458 1453 1447 1440 1435 1433 1433 1430 1436 1443 1431 1420 1423 1427 1426 1421 1421 1428 1429 1430 1432 1433 1431 1427 1428 1431 1427 1426 1423 1428 1440 1435 1437 1452 1440 1423 1431 1427 1417 1428 1437 1427 1424 1436 1442 1437 1446 1469 1474 1473 1486 1495 1500 1508 1497 1481 1478 1477 1477 1473 1463 1460 1461 1460 1460 1460 1462 1464 1466 1470 1473 1476 1480 1482
1465 1461 1454 1447 1449 1451 1453 1458 1461 1464 1467 1470 1471 1463 1454 1448 1441 1436 1436 1435 1435 1435 1436 1435 1430 1424 1419 1419 1420 1416 1418 1426 1427 1428 1430 1431 1429 1420 1418 1425 1424 1423 1420 1421 1434 1433 1431 1450 1449 1424 1419 1424 1423 1433 1447 1444 1431 1428 1432 1434 1442 1458 1466 1469 1475 1480 1489 1500 1499 1490 1484 1480 1473 1462 1459 1461 1457 1455 1458 1461 1463 1464 1465 1469 1472 1475 1479 1481
1466 1463 1454 1446 1448 1449 1450 1456 1460 1462 1464 1463 1461 1456 1448 1444 1439 1435 1437 1437 1435 1435 1435 1429 1427 1427 1419 1413 1414 1411 1412 1418 1420 1424 1426 1424 1426 1420 1413 1416 1419 1419 1417 1417 1425 1429 1430 1444 1450 1432 1418 1426 1435 1435 1440 1444 1441 1439 1444 1448 1449 1449 1451 1458 1463 1463 1471 1487 1493 1494 1497 1488 1467 1453 1453 1456 1454 1453 1456 1460 1463 1464 1465 1468 1471 1474 1477 1479
1467 1465 1454 1446 1447 1449 1451 1457 1459 1459 1459 1457 1453 1450 1445 1441 1437 1433 1434 1435 1431 1429 1428 1425 1424 1425 1420 1415 1412 1407 1407 1412 1413 1417 1420 1417 1421 1422 1411 1407 1412 1414 1416 1420 1423 1426 1430 1437 1444 1439 1431 1434 1435 1425 1423 1429 1433 1438 1444 1446 1448 1450 1453 1465 1472 1462 1458 1471 1479 1488 1502 1491 1462 1450 1451 1451 1452 1453 1454 1459 1463 1464 1465 1468 1470 1473 1476 1478
1469 1464 1453 1448 1451 1450 1452 1456 1456 1455 1455 1452 1449 1446 1442 1438 1434 1432 1431 1431 1428 1423 1420 1419 1419 1418 1415 1412 1410 1407 1408 1410 1410 1410 1413 1411 1412 1413 1405 1400 1404 1407 1412 1420 1419 1416 1420 1428 1437 1439 1433 1430 1424 1414 1415 1419 1421 1428 1434 1435 1438 1444 1451 1467 1477 1466 1458 1465 1465 1474 1495 1488 1459 1449 1450 1450 1451 1453 1455 1459 1461 1463 1465 1468 1471 1473 1475 1477
1470 1461 1450 1449 1453 1452 1453 1454 1453 1452 1450 1447 1445 1442 1439 1435 1432 1430 1429 1428 1425 1420 1416 1414 1412 1411 1408 1405 1407 1409 1410 1411 1411 1407 1406 1405 1402 1400 1396 1394 1398 1401 1407 1415 1414 1410 1415 1426 1436 1438 1430 1422 1416 1411 1410 1412 1419 1429 1432 1430 1433 1440 1443 1450 1457 1457 1461 1467 1465 1474 1495 1487 1461 1450 1450 1450 1451 1452 1456 1459 1460 1463 1464 1467 1471 1472 1474 1476
1468 1460 1450 1449 1451 1451 1452 1451 1451 1450 1447 1444 1442 1439 1436 1432 1429 1428 1427 1425 1421 1417 1415 1412 1407 1406 1403 1401 1403 1405 1407 1414 1413 1405 1403 1403 1396 1390 1389 1389 1394 1397 1402 1407 1407 1409 1418 1426 1433 1443 1445 1440 1434 1431 1428 1422 1423 1431 1433 1429 1431 1433 1436 1440 1445 1450 1462 1466 1462 1477 1496 1485 1461 1452 1450 1450 1453 1453 1455 1457 1460 1463 1464 1466 1470 1471 1473 1475
1467 1460 1451 1449 1450 1449 1447 1446 1446 1446 1443 1442 1440 1437 1434 1430 1424 1423 1423 1421 1417 1413 1412 1409 1403 1401 1399 1399 1401 1401 1403 1411 1412 1404 1402 1401 1392 1383 1383 1385 1389 1391 1393 1395 1394 1400 1415 1422 1425 1441 1455 1457 1453 1448 1442 1435 1430 1429 1430 1429 1429 1431 1434 1440 1447 1458 1467 1464 1458 1472 1486 1478 1461 1454 1453 1453 1454 1456 1456 1457 1459 1462 1464 1466 1468 1470 1473 1474
1471 1465 1456 1450 1448 1446 1445 1443 1443 1443 1441 1441 1439 1434 1432 1428 1422 1418 1418 1417 1414 1409 1408 1405 1401 1402 1402 1401 1404 1405 1403 1404 1406 1404 1402 1402 1396 1386 1382 1381 1382 1385 1387 1388 1388 1394 1408 1415 1417 1428 1439 1442 1442 1434 1424 1424 1431 1433 1431 1429 1429 1430 1431 1436 1447 1458 1463 1461 1462 1466 1470 1471 1466 1459 1456 1454 1453 1455 1456 1456 1459 1460 1462 1465 1466 1469 1471 1472
1473 1469 1462 1458 1454 1448 1445 1443 1441 1441 1439 1439 1438 1433 1429 1425 1420 1416 1414 1412 1409 1406 1404 1402 1400 1406 1410 1407 1409 1410 1405 1402 1403 1403 1401 1403 1399 1390 1383 1379 1378 1380 1381 1383 1385 1391 1406 1414 1414 1418 1423 1422 1423 1421 1414 1417 1426 1430 1430 1429 1429 1429 1430 1437 1446 1449 1449 1459 1468 1463 1457 1464 1465 1457 1454 1453 1451 1452 1453 1453 1456 1458 1460 1463 1464 1467 1469 1471
1472 1468 1465 1466 1462 1456 1452 1448 1444 1442 1439 1436 1434 1431 1428 1425 1420 1416 1412 1408 1404 1401 1404 1406 1405 1407 1409 1409 1412 1413 1409 1407 1406 1402 1402 1404 1401 1396 1390 1383 1378 1377 1377 1380 1383 1388 1403 1414 1410 1412 1417 1414 1413 1414 1413 1416 1420 1422 1425 1427 1427 1427 1430 1436 1441 1439 1441 1452 1460 1456 1453 1456 1455 1450 1449 1447 1445 1446 1448 1450 1454 1456 1458 1461 1462 1465 1467 1468
1472 1469 1466 1467 1465 1459 1457 1453 1447 1443 1438 1434 1430 1427 1426 1424 1419 1414 1410 1410 1407 1400 1402 1410 1410 1406 1405 1405 1410 1414 1413 1413 1411 1405 1403 1405 1404 1403 1403 1397 1386 1377 1376 1380 1381 1383 1397 1410 1405 1406 1414 1412 1409 1410 1410 1415 1420 1422 1423 1423 1423 1425 1427 1430 1432 1432 1435 1441 1444 1447 1451 1449 1444 1441 1440 1438 1438 1440 1443 1447 1450 1453 1456 1458 1461 1463 1464 1466
1475 1473 1469 1467 1464 1459 1455 1452 1447 1442 1437 1433 1430 1425 1422 1420 1418 1412 1408 1411 1415 1408 1405 1409 1408 1404 1404 1404 1406 1410 1409 1410 1412 1406 1402 1404 1405 1406 1409 1407 1398 1388 1381 1382 1382 1381 1394 1406 1402 1403 1415 1417 1411 1410 1410 1414 1420 1424 1425 1422 1421 1424 1425 1426 1427 1426 1430 1436 1437 1443 1451 1448 1437 1432 1432 1435 1437 1439 1443 1446 1447 1450 1453 1455 1458 1461 1463 1464
1476 1476 1474 1470 1464 1457 1454 1451 1447 1443 1438 1433 1430 1425 1420 1418 1415 1412 1408 1409 1414 1415 1412 1410 1406 1402 1403 1403 1405 1407 1404 1403 1407 1404 1398 1400 1404 1404 1406 1403 1400 1398 1393 1387 1384 1384 1394 1404 1402 1405 1422 1425 1415 1414 1414 1412 1417 1425 1427 1425 1423 1425 1427 1426 1425 1424 1427 1432 1436 1443 1450 1446 1435 1430 1433 1435 1437 1440 1443 1444 1446 1449 1451 1454 1456 1459 1461 1462
1475 1474 1474 1473 1466 1458 1456 1452 1447 1444 1439 1434 1430 1425 1423 1420 1415 1414 1414 1410 1408 1412 1414 1410 1405 1403 1406 1407 1406 1405 1403 1402 1403 1403 1400 1399 1398 1398 1401 1399 1396 1400 1400 1393 1388 1387 1392 1403 1405 1411 1426 1427 1418 1417 1416 1417 1429 1437 1430 1424 1423 1423 1425 1425 1424 1422 1419 1422 1432 1441 1441 1435 1429 1430 1435 1438 1438 1441 1442 1443 1445 1448 1450 1453 1456 1457 1459 1461